Time,TemperatureF,DewpointF,PressureIn,WindDirection,WindDirectionDegrees,WindSpeedMPH,WindSpeedGustMPH,Humidity,HourlyPrecipIn,Conditions,Clouds,dailyrainin,SoftwareType,DateUTC
2013-02-20 08:00:00,27.2,22.4,29.49,WSW,240,2.0,2.0,82,0.00,,,0.00,Wunderground v.1.15,2013-02-20 13:00:00,
2013-02-20 08:05:00,27.1,21.7,29.49,SW,219,2.0,2.0,80,0.00,,,0.00,Wunderground v.1.15,2013-02-20 13:05:00,
2013-02-20 08:15:00,27.1,21.7,29.48,SSE,159,3.0,7.0,80,0.00,,,0.00,Wunderground v.1.15,2013-02-20 13:15:00,
2013-02-20 08:20:00,27.1,21.5,29.48,SE,132,4.0,4.0,79,0.00,,,0.00,Wunderground v.1.15,2013-02-20 13:20:00,
2013-02-20 08:30:00,27.3,21.6,29.49,WNW,289,4.0,4.0,79,0.00,,,0.00,Wunderground v.1.15,2013-02-20 13:30:00,
2013-02-20 08:35:00,27.7,21.7,29.48,South,191,4.0,4.0,78,0.00,,,0.00,Wunderground v.1.15,2013-02-20 13:35:00,
2013-02-20 08:40:00,28.2,21.9,29.48,NW,311,3.0,4.0,77,0.00,,,0.00,Wunderground v.1.15,2013-02-20 13:40:00,
2013-02-20 08:50:00,29.3,22.7,29.48,SW,231,4.0,4.0,76,0.00,,,0.00,Wunderground v.1.15,2013-02-20 13:50:00,
2013-02-20 09:00:00,30.1,22.5,29.47,SW,224,3.0,3.0,73,0.00,,,0.00,Wunderground v.1.15,2013-02-20 14:00:00,
2013-02-20 09:05:00,30.3,23.3,29.47,NNW,343,3.0,8.0,75,0.00,,,0.00,Wunderground v.1.15,2013-02-20 14:05:00,
2013-02-20 09:15:00,30.4,22.1,29.48,WNW,293,4.0,5.0,71,0.00,,,0.00,Wunderground v.1.15,2013-02-20 14:15:00,
2013-02-20 09:20:00,30.5,22.2,29.48,ESE,122,4.0,5.0,71,0.00,,,0.00,Wunderground v.1.15,2013-02-20 14:20:00,
2013-02-20 09:25:00,30.9,22.3,29.47,NNE,28,4.0,5.0,70,0.00,,,0.00,Wunderground v.1.15,2013-02-20 14:25:00,
2013-02-20 09:35:00,30.9,21.9,29.47,SE,143,4.0,4.0,69,0.00,,,0.00,Wunderground v.1.15,2013-02-20 14:35:00,
2013-02-20 09:40:00,31.1,21.8,29.47,ESE,109,4.0,4.0,68,0.00,,,0.00,Wunderground v.1.15,2013-02-20 14:40:00,
2013-02-20 09:50:00,30.9,21.9,29.47,NNE,32,4.0,6.0,69,0.00,,,0.00,Wunderground v.1.15,2013-02-20 14:50:00,
2013-02-20 09:55:00,31.0,21.7,29.46,NNW,343,5.0,11.0,68,0.00,,,0.00,Wunderground v.1.15,2013-02-20 14:55:00,
2013-02-20 10:05:00,31.2,21.2,29.46,WSW,247,5.0,5.0,66,0.00,,,0.00,Wunderground v.1.15,2013-02-20 15:05:00,
2013-02-20 10:10:00,31.2,21.2,29.48,SSW,210,6.0,6.0,66,0.00,,,0.00,Wunderground v.1.15,2013-02-20 15:10:00,
2013-02-20 10:20:00,31.4,21.0,29.48,SSW,205,6.0,6.0,65,0.00,,,0.00,Wunderground v.1.15,2013-02-20 15:20:00,
2013-02-20 10:25:00,31.6,21.5,29.47,West,281,5.0,6.0,66,0.00,,,0.00,Wunderground v.1.15,2013-02-20 15:25:00,
2013-02-20 10:35:00,31.6,20.4,29.47,SW,236,5.0,6.0,63,0.00,,,0.00,Wunderground v.1.15,2013-02-20 15:35:00,
2013-02-20 10:40:00,31.7,20.2,29.48,WNW,302,6.0,6.0,62,0.00,,,0.00,Wunderground v.1.15,2013-02-20 15:40:00,
2013-02-20 10:45:00,31.7,20.5,29.48,South,177,6.0,6.0,63,0.00,,,0.00,Wunderground v.1.15,2013-02-20 15:45:00,
2013-02-20 10:55:00,32.0,20.4,29.48,West,259,4.0,5.0,62,0.00,,,0.00,Wunderground v.1.15,2013-02-20 15:55:00,
2013-02-20 11:00:00,32.1,19.8,29.47,ENE,75,4.0,4.0,60,0.00,,,0.00,Wunderground v.1.15,2013-02-20 16:00:00,
2013-02-20 11:10:00,32.0,19.7,29.49,NNE,16,4.0,4.0,60,0.00,,,0.00,Wunderground v.1.15,2013-02-20 16:10:00,
2013-02-20 11:15:00,32.1,20.2,29.49,South,191,4.0,4.0,61,0.00,,,0.00,Wunderground v.1.15,2013-02-20 16:15:00,
2013-02-20 11:20:00,31.7,20.2,29.49,SE,131,4.0,4.0,62,0.00,,,0.00,Wunderground v.1.15,2013-02-20 16:20:00,
2013-02-20 11:30:00,30.8,20.8,29.49,SE,146,3.0,6.0,66,0.00,,,0.00,Wunderground v.1.15,2013-02-20 16:30:00,
2013-02-20 11:35:00,30.8,20.8,29.49,South,179,3.0,6.0,66,0.00,,,0.00,Wunderground v.1.15,2013-02-20 16:35:00,
2013-02-20 11:45:00,31.2,21.2,29.48,SSW,204,3.0,4.0,66,0.00,,,0.00,Wunderground v.1.15,2013-02-20 16:45:00,
2013-02-20 11:50:00,31.7,20.5,29.48,ESE,118,4.0,4.0,63,0.00,,,0.00,Wunderground v.1.15,2013-02-20 16:50:00,
2013-02-20 11:55:00,32.1,20.2,29.49,NW,325,4.0,6.0,61,0.00,,,0.00,Wunderground v.1.15,2013-02-20 16:55:00,
2013-02-20 12:05:00,32.6,20.2,29.48,NW,322,4.0,4.0,60,0.00,,,0.00,Wunderground v.1.15,2013-02-20 17:05:00,
2013-02-20 12:10:00,32.9,20.5,29.49,SE,144,3.0,4.0,60,0.00,,,0.00,Wunderground v.1.15,2013-02-20 17:10:00,
2013-02-20 12:20:00,32.4,20.4,29.49,West,276,4.0,4.0,61,0.00,,,0.00,Wunderground v.1.15,2013-02-20 17:20:00,
2013-02-20 12:25:00,31.9,20.0,29.49,South,173,3.0,4.0,61,0.00,,,0.00,Wunderground v.1.15,2013-02-20 17:25:00,
2013-02-20 12:30:00,31.2,19.3,29.49,NE,56,3.0,3.0,61,0.00,,,0.00,Wunderground v.1.15,2013-02-20 17:30:00,
2013-02-20 12:40:00,30.8,19.3,29.49,ESE,122,2.0,2.0,62,0.00,,,0.00,Wunderground v.1.15,2013-02-20 17:40:00,
2013-02-20 12:45:00,31.1,20.0,29.48,SSE,165,3.0,4.0,63,0.00,,,0.00,Wunderground v.1.15,2013-02-20 17:45:00,
2013-02-20 12:55:00,31.0,19.5,29.49,ESE,115,3.0,3.0,62,0.00,,,0.00,Wunderground v.1.15,2013-02-20 17:55:00,
2013-02-20 13:00:00,31.3,19.8,29.49,NNW,334,2.0,5.0,62,0.00,,,0.00,Wunderground v.1.15,2013-02-20 18:00:00,
2013-02-20 13:10:00,31.7,19.8,29.49,WNW,303,3.0,3.0,61,0.00,,,0.00,Wunderground v.1.15,2013-02-20 18:10:00,
2013-02-20 13:15:00,31.7,19.8,29.49,SSE,165,2.0,5.0,61,0.00,,,0.00,Wunderground v.1.15,2013-02-20 18:15:00,
2013-02-20 13:20:00,31.8,19.5,29.48,SW,229,2.0,2.0,60,0.00,,,0.00,Wunderground v.1.15,2013-02-20 18:20:00,
2013-02-20 13:30:00,31.4,19.9,29.47,North,356,3.0,5.0,62,0.00,,,0.00,Wunderground v.1.15,2013-02-20 18:30:00,
2013-02-20 13:35:00,31.2,20.1,29.48,SE,145,3.0,5.0,63,0.00,,,0.00,Wunderground v.1.15,2013-02-20 18:35:00,
2013-02-20 13:45:00,31.2,19.3,29.47,NNE,25,2.0,10.0,61,0.00,,,0.00,Wunderground v.1.15,2013-02-20 18:45:00,
2013-02-20 13:50:00,30.7,19.2,29.47,SSE,163,3.0,3.0,62,0.00,,,0.00,Wunderground v.1.15,2013-02-20 18:50:00,
2013-02-20 13:55:00,30.3,18.8,29.47,SW,229,4.0,5.0,62,0.00,,,0.00,Wunderground v.1.15,2013-02-20 18:55:00,
2013-02-20 14:05:00,29.8,18.4,29.48,SE,129,4.0,5.0,62,0.00,,,0.00,Wunderground v.1.15,2013-02-20 19:05:00,
2013-02-20 14:10:00,29.5,18.4,29.47,NNW,340,4.0,8.0,63,0.00,,,0.00,Wunderground v.1.15,2013-02-20 19:10:00,
2013-02-20 14:15:00,29.6,18.5,29.47,NE,55,4.0,8.0,63,0.00,,,0.00,Wunderground v.1.15,2013-02-20 19:15:00,
2013-02-20 14:25:00,29.7,17.9,29.47,West,278,4.0,6.0,61,0.00,,,0.00,Wunderground v.1.15,2013-02-20 19:25:00,
2013-02-20 14:30:00,29.6,18.5,29.47,NW,309,4.0,4.0,63,0.00,,,0.00,Wunderground v.1.15,2013-02-20 19:30:00,
2013-02-20 14:35:00,29.7,18.6,29.48,NE,36,3.0,10.0,63,0.00,,,0.00,Wunderground v.1.15,2013-02-20 19:35:00,
2013-02-20 14:45:00,29.8,18.4,29.47,NNE,27,4.0,5.0,62,0.00,,,0.00,Wunderground v.1.15,2013-02-20 19:45:00,
2013-02-20 14:50:00,29.5,18.4,29.48,NW,324,3.0,3.0,63,0.00,,,0.00,Wunderground v.1.15,2013-02-20 19:50:00,
2013-02-20 15:00:00,28.8,18.1,29.47,SW,228,5.0,5.0,64,0.00,,,0.00,Wunderground v.1.15,2013-02-20 20:00:00,
2013-02-20 15:05:00,28.5,17.9,29.47,West,276,4.0,12.0,64,0.00,,,0.00,Wunderground v.1.15,2013-02-20 20:05:00,
2013-02-20 15:10:00,28.2,17.6,29.47,SW,214,5.0,5.0,64,0.00,,,0.00,Wunderground v.1.15,2013-02-20 20:10:00,
2013-02-20 15:20:00,28.0,16.6,29.48,West,280,4.0,5.0,62,0.00,,,0.00,Wunderground v.1.15,2013-02-20 20:20:00,
2013-02-20 15:25:00,27.9,16.6,29.48,South,181,4.0,5.0,62,0.00,,,0.00,Wunderground v.1.15,2013-02-20 20:25:00,
2013-02-20 15:35:00,27.8,17.2,29.48,NNE,31,3.0,4.0,64,0.00,,,0.00,Wunderground v.1.15,2013-02-20 20:35:00,
2013-02-20 15:40:00,27.6,17.0,29.49,SE,128,3.0,8.0,64,0.00,,,0.00,Wunderground v.1.15,2013-02-20 20:40:00,
2013-02-20 15:50:00,27.1,16.9,29.48,SSW,211,5.0,5.0,65,0.00,,,0.00,Wunderground v.1.15,2013-02-20 20:50:00,
2013-02-20 15:55:00,27.0,16.8,29.49,West,262,5.0,5.0,65,0.00,,,0.00,Wunderground v.1.15,2013-02-20 20:55:00,
2013-02-20 16:05:00,26.6,16.1,29.49,WNW,300,7.0,9.0,64,0.00,,,0.00,Wunderground v.1.15,2013-02-20 21:05:00,
2013-02-20 16:10:00,26.5,16.3,29.49,NNE,30,8.0,8.0,65,0.00,,,0.00,Wunderground v.1.15,2013-02-20 21:10:00,
2013-02-20 16:15:00,26.3,16.1,29.49,SSW,198,9.0,9.0,65,0.00,,,0.00,Wunderground v.1.15,2013-02-20 21:15:00,
2013-02-20 16:25:00,26.1,16.3,29.50,WNW,300,9.0,10.0,66,0.00,,,0.00,Wunderground v.1.15,2013-02-20 21:25:00,
2013-02-20 16:30:00,26.0,15.8,29.50,ESE,108,10.0,10.0,65,0.00,,,0.00,Wunderground v.1.15,2013-02-20 21:30:00,
2013-02-20 16:40:00,25.7,16.3,29.50,NNE,26,7.0,7.0,67,0.00,,,0.00,Wunderground v.1.15,2013-02-20 21:40:00,
2013-02-20 16:45:00,25.7,16.6,29.50,North,5,7.0,16.0,68,0.00,,,0.00,Wunderground v.1.15,2013-02-20 21:45:00,
2013-02-20 16:55:00,25.6,16.2,29.50,NNE,13,8.0,11.0,67,0.00,,,0.00,Wunderground v.1.15,2013-02-20 21:55:00,
2013-02-20 17:00:00,25.5,16.4,29.50,North,356,9.0,9.0,68,0.00,,,0.00,Wunderground v.1.15,2013-02-20 22:00:00,
2013-02-20 17:05:00,25.5,16.4,29.51,West,267,9.0,9.0,68,0.00,,,0.00,Wunderground v.1.15,2013-02-20 22:05:00,
2013-02-20 17:15:00,25.4,16.6,29.51,North,5,9.0,9.0,69,0.00,,,0.00,Wunderground v.1.15,2013-02-20 22:15:00,
2013-02-20 17:20:00,25.3,16.5,29.52,North,360,10.0,10.0,69,0.00,,,0.00,Wunderground v.1.15,2013-02-20 22:20:00,
2013-02-20 17:30:00,25.2,16.5,29.52,NNW,344,7.0,12.0,69,0.00,,,0.00,Wunderground v.1.15,2013-02-20 22:30:00,
2013-02-20 17:35:00,25.2,16.5,29.53,North,349,5.0,12.0,69,0.00,,,0.00,Wunderground v.1.15,2013-02-20 22:35:00,
2013-02-20 17:45:00,25.2,16.1,29.52,NW,320,5.0,5.0,68,0.00,,,0.00,Wunderground v.1.15,2013-02-20 22:45:00,
2013-02-20 17:50:00,25.2,16.1,29.53,WNW,293,5.0,5.0,68,0.00,,,0.00,Wunderground v.1.15,2013-02-20 22:50:00,
2013-02-20 17:55:00,25.2,16.1,29.54,South,180,6.0,6.0,68,0.00,,,0.00,Wunderground v.1.15,2013-02-20 22:55:00,
2013-02-20 18:05:00,25.1,16.4,29.54,NNE,23,6.0,9.0,69,0.00,,,0.00,Wunderground v.1.15,2013-02-20 23:05:00,
2013-02-20 18:10:00,25.1,16.4,29.54,South,189,6.0,6.0,69,0.00,,,0.00,Wunderground v.1.15,2013-02-20 23:10:00,
2013-02-20 18:20:00,25.0,16.6,29.55,NNW,336,6.0,6.0,70,0.00,,,0.00,Wunderground v.1.15,2013-02-20 23:20:00,
2013-02-20 18:25:00,25.0,16.3,29.54,NW,305,6.0,6.0,69,0.00,,,0.00,Wunderground v.1.15,2013-02-20 23:25:00,
2013-02-20 18:35:00,25.0,16.3,29.55,NW,325,4.0,6.0,69,0.00,,,0.00,Wunderground v.1.15,2013-02-20 23:35:00,
2013-02-20 18:40:00,25.0,16.3,29.55,NNW,330,6.0,7.0,69,0.00,,,0.00,Wunderground v.1.15,2013-02-20 23:40:00,
2013-02-20 18:50:00,24.9,16.5,29.56,SSE,149,7.0,7.0,70,0.00,,,0.00,Wunderground v.1.15,2013-02-20 23:50:00,
2013-02-20 18:55:00,24.9,16.2,29.56,WNW,292,6.0,7.0,69,0.00,,,0.00,Wunderground v.1.15,2013-02-20 23:55:00,
2013-02-20 19:00:00,24.9,16.2,29.56,NNW,338,7.0,7.0,69,0.00,,,0.00,Wunderground v.1.15,2013-02-21 00:00:00,
2013-02-20 19:10:00,24.8,16.1,29.56,NNW,332,6.0,6.0,69,0.00,,,0.00,Wunderground v.1.15,2013-02-21 00:10:00,
2013-02-20 19:20:00,24.8,15.7,29.56,NNE,18,6.0,6.0,68,0.00,,,0.00,Wunderground v.1.15,2013-02-21 00:20:00,
2013-02-20 19:25:00,24.7,16.0,29.56,NNE,15,5.0,11.0,69,0.00,,,0.00,Wunderground v.1.15,2013-02-21 00:25:00,
2013-02-20 19:30:00,24.7,16.0,29.55,NNE,27,5.0,5.0,69,0.00,,,0.00,Wunderground v.1.15,2013-02-21 00:30:00,
2013-02-20 19:40:00,24.6,15.9,29.56,North,8,6.0,6.0,69,0.00,,,0.00,Wunderground v.1.15,2013-02-21 00:40:00,
2013-02-20 19:45:00,24.6,15.9,29.56,ENE,64,6.0,6.0,69,0.00,,,0.00,Wunderground v.1.15,2013-02-21 00:45:00,
2013-02-20 19:55:00,24.5,15.8,29.55,North,355,5.0,7.0,69,0.00,,,0.00,Wunderground v.1.15,2013-02-21 00:55:00,
2013-02-20 20:00:00,24.4,15.7,29.56,WNW,295,5.0,5.0,69,0.00,,,0.00,Wunderground v.1.15,2013-02-21 01:00:00,
2013-02-20 20:10:00,24.5,15.4,29.56,NW,315,7.0,7.0,68,0.00,,,0.00,Wunderground v.1.15,2013-02-21 01:10:00,
2013-02-20 20:15:00,24.5,15.4,29.56,NNE,20,6.0,7.0,68,0.00,,,0.00,Wunderground v.1.15,2013-02-21 01:15:00,
2013-02-20 20:20:00,24.4,15.7,29.57,NNW,335,6.0,6.0,69,0.00,,,0.00,Wunderground v.1.15,2013-02-21 01:20:00,
2013-02-20 20:30:00,24.4,15.7,29.57,North,9,5.0,6.0,69,0.00,,,0.00,Wunderground v.1.15,2013-02-21 01:30:00,
2013-02-20 20:35:00,24.4,15.7,29.57,NE,42,4.0,6.0,69,0.00,,,0.00,Wunderground v.1.15,2013-02-21 01:35:00,
2013-02-20 20:45:00,24.3,15.6,29.57,North,360,4.0,4.0,69,0.00,,,0.00,Wunderground v.1.15,2013-02-21 01:45:00,
2013-02-20 20:50:00,24.3,15.6,29.58,WNW,297,4.0,4.0,69,0.00,,,0.00,Wunderground v.1.15,2013-02-21 01:50:00,
2013-02-20 21:00:00,24.2,15.8,29.58,NW,316,5.0,5.0,70,0.00,,,0.00,Wunderground v.1.15,2013-02-21 02:00:00,
2013-02-20 21:05:00,24.0,16.0,29.58,WSW,246,4.0,5.0,71,0.00,,,0.00,Wunderground v.1.15,2013-02-21 02:05:00,
2013-02-20 21:10:00,24.0,15.6,29.58,SW,228,4.0,4.0,70,0.00,,,0.00,Wunderground v.1.15,2013-02-21 02:10:00,
2013-02-20 21:20:00,24.0,15.6,29.58,NNW,338,6.0,6.0,70,0.00,,,0.00,Wunderground v.1.15,2013-02-21 02:20:00,
2013-02-20 21:25:00,23.9,15.5,29.58,NW,322,6.0,6.0,70,0.00,,,0.00,Wunderground v.1.15,2013-02-21 02:25:00,
2013-02-20 21:35:00,23.9,14.9,29.58,NNW,340,6.0,10.0,68,0.00,,,0.00,Wunderground v.1.15,2013-02-21 02:35:00,
2013-02-20 21:40:00,23.9,14.5,29.58,WNW,300,6.0,7.0,67,0.00,,,0.00,Wunderground v.1.15,2013-02-21 02:40:00,
2013-02-20 21:50:00,23.9,14.5,29.58,WNW,301,6.0,9.0,67,0.00,,,0.00,Wunderground v.1.15,2013-02-21 02:50:00,
2013-02-20 22:00:00,23.9,14.5,29.58,NNW,340,5.0,5.0,67,0.00,,,0.00,Wunderground v.1.15,2013-02-21 03:00:00,
2013-02-20 22:05:00,23.9,14.2,29.58,West,281,5.0,5.0,66,0.00,,,0.00,Wunderground v.1.15,2013-02-21 03:05:00,
2013-02-20 22:15:00,23.8,14.4,29.59,ENE,61,5.0,9.0,67,0.00,,,0.00,Wunderground v.1.15,2013-02-21 03:15:00,
2013-02-20 22:20:00,23.8,14.4,29.59,NNW,335,5.0,5.0,67,0.00,,,0.00,Wunderground v.1.15,2013-02-21 03:20:00,
2013-02-20 22:30:00,23.8,14.1,29.60,North,349,4.0,4.0,66,0.00,,,0.00,Wunderground v.1.15,2013-02-21 03:30:00,
2013-02-20 22:35:00,23.7,14.0,29.59,West,278,4.0,6.0,66,0.00,,,0.00,Wunderground v.1.15,2013-02-21 03:35:00,
2013-02-20 22:45:00,23.6,14.2,29.60,SW,228,4.0,5.0,67,0.00,,,0.00,Wunderground v.1.15,2013-02-21 03:45:00,
2013-02-20 22:50:00,23.6,14.6,29.60,North,360,3.0,6.0,68,0.00,,,0.00,Wunderground v.1.15,2013-02-21 03:50:00,
2013-02-20 22:55:00,23.5,14.8,29.61,South,179,3.0,6.0,69,0.00,,,0.00,Wunderground v.1.15,2013-02-21 03:55:00,
2013-02-20 23:05:00,23.4,14.7,29.61,SW,214,3.0,3.0,69,0.00,,,0.00,Wunderground v.1.15,2013-02-21 04:05:00,